Miscellaneous Local Product
Issued by NWS Hastings, NE

Home | Current Version | Previous Version | Text Only | Print | Product List | Glossary On
Versions: 1 2 3 4 5 6 7 8 9 10 11 12 13 14 15 16 17 18 19 20 21 22 23 24 25 26 27 28 29 30 31 32 33 34 35 36 37 38 39 40 41 42 43 44 45 46 47 48 49 50
110
AXUS43 KGID 270902
MISGRI

GID CWA HOURLY WEATHER ROUNDUP
NATIONAL WEATHER SERVICE HASTINGS NE
400 AM CDT FRI APR 27 2018

NOTE: "FAIR" INDICATES FEW OR NO CLOUDS BELOW 12,000 FEET WITH NO
SIGNIFICANT WEATHER AND/OR OBSTRUCTIONS TO VISIBILITY.

...SOUTH CENTRAL NEBRASKA...

CITY           SKY/WX    TMP DP  RH WIND       PRES   REMARKS
GRAND ISLAND   CLEAR     37  30  75 W7        30.08F WCI  32
KEARNEY        CLEAR     37  29  72 W5        30.10F WCI  33
HASTINGS       CLEAR     39  30  70 W6        30.09F WCI  35
ORD            CLEAR     32  28  85 CALM      30.05F
YORK             N/A     32  30  93 W8        30.07F WCI  25
AURORA         CLEAR     36  29  78 SW7       30.07F WCI  30
LEXINGTON      CLEAR     33  29  85 NW5       30.11S WCI  29
HOLDREGE       CLEAR     40  29  65 W3        30.10S
HEBRON         CLEAR     37  30  76 CALM      30.09F

...NEBRASKA PANHANDLE...

CITY           SKY/WX    TMP DP  RH WIND       PRES   REMARKS
CHADRON        CLEAR     33  30  88 SW7       30.10F WCI  27
ALLIANCE       CLEAR     27  25  92 W9        30.11F WCI  18
SCOTTSBLUFF    CLEAR     37  30  75 NW3       30.14S
SIDNEY         CLEAR     28  26  92 NW6       30.15F WCI  22

...WESTERN AND NORTH CENTRAL NEBRASKA...

CITY           SKY/WX    TMP DP  RH WIND       PRES   REMARKS
VALENTINE      CLEAR     40  31  70 W8        30.05F WCI  34
AINSWORTH      CLEAR     41  32  72 W8        30.04F
ONEILL         CLEAR     43  33  69 SW7       30.02F
BROKEN BOW     CLEAR     36  28  73 CALM      30.07F
IMPERIAL       CLEAR     37  31  78 SW8       30.13F WCI  31
NORTH PLATTE   CLEAR     33  28  81 NW5       30.11F WCI  29
MCCOOK         CLEAR     34  30  85 W8        30.13F WCI  27

...EASTERN NEBRASKA...

CITY           SKY/WX    TMP DP  RH WIND       PRES   REMARKS
NORFOLK        CLEAR     36  30  79 CALM      30.02F
SO SIOUX CITY  CLEAR     37  29  72 CALM      29.99F
TEKAMAH        CLEAR     38  27  64 W6        30.01F WCI  33
COLUMBUS       CLEAR     34  30  85 CALM      30.05F
ALBION         CLEAR     38  32  77 N5        30.05S WCI  35
OMAHA EPPLEY   CLEAR     41  33  73 CALM      30.03F
OFFUTT AFB     CLEAR     38  29  70 W5        30.02F WCI  35
MILLARD        CLEAR     42  33  71 CALM      30.03F
LINCOLN        CLEAR     36  28  73 CALM      30.07F
NEBRASKA CITY  CLEAR     43  31  63 W9        30.04S
BEATRICE       CLEAR     37  31  78 W5        30.06F WCI  34
FALLS CITY     CLEAR     39  30  70 W8        30.04S WCI  33

...NORTHERN KANSAS...

CITY           SKY/WX    TMP DP  RH WIND       PRES   REMARKS
GOODLAND       CLEAR     36  29  75 W10       30.16F WCI  28
HILL CITY      CLEAR     36  30  79 W5        30.14F WCI  32
NORTON         SUNNY     36  30  80 SW8       30.12S WCI  29
PHILLIPSBURG   CLEAR     36  30  80 CALM      30.13S
SMITH CENTER   CLEAR     34  28  80 CALM      30.12F
BELOIT         CLEAR     34  30  86 CALM      30.11F
HAYS           CLEAR     31  28  89 W7        30.14F WCI  24
RUSSELL        CLEAR     34  31  88 SW8       30.12S WCI  27
CONCORDIA      CLEAR     42  29  59 W8        30.09S
SALINA         CLEAR     41  34  76 CALM      30.11S
TOPEKA         CLEAR     45  34  65 W5        30.05F



USA.gov is the U.S. government's official web portal to all federal, state and local government web resources and services.